Location: Addison Town Hall
(32.9525°N, 96.8158°W)
Time: 20:44:47
(UTC+00:00)

NOSS 3-2 (C) - Pass Details

Date: 08 March 2021
Orbit: 783 x 1429 km, 63.4° (Epoch: 04 April)

Event Time Altitude Azimuth Distance (km) Brightness Sun altitude
Rises 12:13:05 0° 323° (NW) 4,153 6.4 -7.8°
Reaches altitude 10° 12:15:49 10° 318° (NW) 3,265 5.8 -7.2°
Maximum altitude 12:23:32 51° 246° (WSW) 1,682 4.4 -5.6°
Drops below altitude 10° 12:31:54 10° 174° (S) 3,517 6.5 -3.8°
Sets 12:34:58 0° 169° (S) 4,495 7.2 -3.2°
